Location: Newark
(34.6501°N, 117.8502°W)
Time: 11:07:39
(UTC+00:00)

BlueWalker 3 - Pass Details

Date: 10 December 2022
Orbit: 499 x 517 km, 53.2° (Epoch: 04 February)

Event Time Altitude Azimuth Distance (km) Brightness Sun altitude
Rises 01:05:45 0° 330° (NNW) 2,624 5.7 -5.5°
Reaches altitude 10° 01:09:09 10° 1° (N) 1,729 4.4 -6.1°
Maximum altitude 01:10:51 12° 26° (NNE) 1,579 4.0 -6.4°
Drops below altitude 10° 01:12:32 10° 52° (NE) 1,721 4.0 -6.7°
Enters shadow 01:13:10 - 60° (ENE) 1,839 4.1 -6.9°
